WetterOnline ( https://www.wetteronline.de )

Wetter aktuell Poueyferré

Aktuelles Wetter: Tarbes/Ossun (364m)

6-stündlich | Neueste Meldungen
Ortszeit Temperatur Wetter
Fr, 21.01. 7:00 1.0° C bedeckt
Fr, 21.01. 1:00 3.7° C bedeckt
Do, 20.01. 19:00 7.1° C bedeckt
Do, 20.01. 13:00 8.2° C leichter Regen
Do, 20.01. 7:00 4.8° C leichter Regen
Do, 20.01. 1:00 7.1° C bedeckt
Mi, 19.01. 19:00 6.5° C leichter Regen
Mi, 19.01. 13:00 7.0° C bedeckt
Ortszeit Temperatur Wetter
Fr, 21.01. 7:00 1.0° C bedeckt
Fr, 21.01. 6:00 1.0° C bedeckt
Fr, 21.01. 5:00 1.6° C Nebel
Fr, 21.01. 4:00 2.2° C bewölkt
Fr, 21.01. 3:00 2.8° C bedeckt
Fr, 21.01. 2:00 3.4° C bedeckt
Fr, 21.01. 1:00 3.7° C bedeckt
Ortszeit Relative Feuchte Sichtweite
Fr, 21.01. 7:00 97% 12 km
Fr, 21.01. 1:00 95% 15 km
Do, 20.01. 19:00 91% 18 km
Do, 20.01. 13:00 88% 28 km
Do, 20.01. 7:00 94% 8 km
Do, 20.01. 1:00 72% 55 km
Mi, 19.01. 19:00 86% 15 km
Mi, 19.01. 13:00 66% 45 km
Ortszeit Relative Feuchte Sichtweite
Fr, 21.01. 7:00 97% 12 km
Fr, 21.01. 6:00 96% 6 km
Fr, 21.01. 5:00 95% 0.5 km
Fr, 21.01. 4:00 95% 9 km
Fr, 21.01. 3:00 95% 9 km
Fr, 21.01. 2:00 95% 12 km
Fr, 21.01. 1:00 95% 15 km
Ortszeit Niederschlagsmenge Niederschlagsart
Fr, 21.01. 7:00 4 l/m2 in 12 Std. -
Fr, 21.01. 1:00 4 l/m2 in 6 Std. -
Do, 20.01. 19:00 0.2 l/m2 in 12 Std. -
Do, 20.01. 13:00 0.1 l/m2 in 6 Std. -
Do, 20.01. 7:00 1 l/m2 in 12 Std. -
Do, 20.01. 1:00 0.1 l/m2 in 6 Std. -
Mi, 19.01. 19:00 0.1 l/m2 in 12 Std. -
Mi, 19.01. 13:00 0.0 l/m2 in 6 Std. -
Ortszeit Niederschlagsmenge Niederschlagsart
Fr, 21.01. 7:00 keine Meldung -
Fr, 21.01. 6:00 0.0 l/m2 in 1 Std. -
Fr, 21.01. 5:00 0.0 l/m2 in 1 Std. -
Fr, 21.01. 4:00 keine Meldung -
Fr, 21.01. 3:00 0.0 l/m2 in 1 Std. -
Fr, 21.01. 2:00 0.0 l/m2 in 1 Std. -
Fr, 21.01. 1:00 keine Meldung -
Ortszeit Stärke Spitze Richtung
km/h Bft. km/h Grad Sektor
Fr, 21.01. 7:00 6 1 7 30° NO
Fr, 21.01. 1:00 9 2 17 40° NO
Do, 20.01. 19:00 13 3 20 360° N
Do, 20.01. 13:00 9 2 22 250° W
Do, 20.01. 7:00 9 2 19 190° S
Do, 20.01. 1:00 13 3 26 220° SW
Mi, 19.01. 19:00 19 3 31 250° W
Mi, 19.01. 13:00 15 3 30 210° SW
Ortszeit Stärke Spitze Richtung
km/h Bft. km/h Grad Sektor
Fr, 21.01. 7:00 6 1 7 30° NO
Fr, 21.01. 6:00 6 1 7 340° N
Fr, 21.01. 5:00 4 1 6 320° NW
Fr, 21.01. 4:00 0 0 13 - -
Fr, 21.01. 3:00 11 2 13 360° N
Fr, 21.01. 2:00 6 1 15 40° NO
Fr, 21.01. 1:00 9 2 17 40° NO
Ortszeit Untergrenze Bedeckung Gattung
total tief tief mittel hoch
Fr, 21.01. 7:00 - 8/8 - - - -
Fr, 21.01. 1:00 - 8/8 - - - -
Do, 20.01. 19:00 - 8/8 - - - -
Do, 20.01. 13:00 - 8/8 - - - -
Do, 20.01. 7:00 - 8/8 - - - -
Do, 20.01. 1:00 - 8/8 - - - -
Mi, 19.01. 19:00 - 7/8 - - - -
Mi, 19.01. 13:00 - 8/8 - - - -
Ortszeit Bedeckungsgrad in Achtel und Wolkenuntergrenze
Fr, 21.01. 7:00 8
Fr, 21.01. 6:00 8
Fr, 21.01. 5:00 6
Fr, 21.01. 4:00 7
Fr, 21.01. 3:00 8
Fr, 21.01. 2:00 8
Fr, 21.01. 1:00 8
Ortszeit Luftdruck NN (hPa) Tendenz (hPa in 3 Std.)
Fr, 21.01. 7:00 1033 - 0,2
Fr, 21.01. 1:00 1033 + 0,5
Do, 20.01. 19:00 1030 + 0,8
Do, 20.01. 13:00 1031 - 0,6
Do, 20.01. 7:00 1032 - 0,3
Do, 20.01. 1:00 1033 - 0,9
Mi, 19.01. 19:00 1033 + 1,0
Mi, 19.01. 13:00 1034 - 0,6
Ortszeit Luftdruck NN (hPa) Tendenz (hPa in 3 Std.)
Fr, 21.01. 7:00 1033 - 0,2
Fr, 21.01. 6:00 1032 - 0,4
Fr, 21.01. 5:00 1032 - 0,2
Fr, 21.01. 4:00 1033 - 0,3
Fr, 21.01. 3:00 1033 - 0,4
Fr, 21.01. 2:00 1032 - 0,3
Fr, 21.01. 1:00 1033 + 0,5
Ortszeit Schneehöhe (cm)
Fr, 21.01. 7:00 0
Fr, 21.01. 1:00 0
Do, 20.01. 19:00 0
Do, 20.01. 13:00 0
Do, 20.01. 7:00 0
Do, 20.01. 1:00 0
Mi, 19.01. 19:00 0
Mi, 19.01. 13:00 0
Ortszeit Schneehöhe (cm)
Fr, 21.01. 7:00 0
Fr, 21.01. 6:00 -
Fr, 21.01. 5:00 -
Fr, 21.01. 4:00 0
Fr, 21.01. 3:00 -
Fr, 21.01. 2:00 -
Fr, 21.01. 1:00 0
Link zu dieser Seite / Seite empfehlen

Das Wetter in ...